Weather History for China Lake, CA

Change the Weather History Date:

Sunday, March 24, 2013

  Actual Average Record
Temperature  
Mean Temperature 54 °F -  
Max Temperature 75 °F 72 °F 82 °F (1997)
Min Temperature 36 °F 45 °F 36 °F (2013)
Degree Days  
Heating Degree Days 10    
Growing Degree Days 4 (Base 50)    
Moisture  
Dew Point 11 °F    
Average Humidity 19    
Maximum Humidity 36    
Minimum Humidity 7    
Precipitation  
Precipitation 0.00 in - - ()
Sea Level Pressure  
Sea Level Pressure 29.98 in    
Wind  
Wind Speed 4 mph (SW)    
Max Wind Speed 8 mph    
Max Gust Speed -    
Visibility 10 miles    
Events      
Averages and records for this station are not official NWS values.
T = Trace of Precipitation, MM = Missing Value Source: NWS Daily Summary

Daily Weather History Graph

Daily Weather History Graph

Search for Another Location

Airport:

Trip Planner

Search our weather history database for the weather conditions in past years. The results will help you decide how hot, cold, wet, or windy it might be!

Date:

Astronomy

Mar. 24, 2013 Rise Set
Actual Time 6:48 AM PDT 7:06 PM PDT
Civil Twilight 6:22 AM PDT 7:31 PM PDT
Nautical Twilight 5:52 AM PDT 8:01 PM PDT
Astronomical Twilight 5:22 AM PDT 8:32 PM PDT
Moon 4:43 PM PDT (3/24) 4:56 AM PDT (3/24)
Length of Visible Light 13h 09m
Length of Day
12h 17m
Waxing Gibbous, 92% of the Moon is Illuminated
Mar 24
Waxing Gibbous
Mar 27
Full
Apr 2
Last Quarter
Apr 10
New
Apr 18
First Quarter

Hourly Weather History & Observations

Time (PDT) Temp. Windchill Dew Point Humidity Pressure Visibility Wind Dir Wind Speed Gust Speed Precip Events Conditions
12:56 AM 45.0 °F 43.5 °F 15.1 °F 30% 29.99 in 10.0 mi WNW 3.5 mph - N/A   Clear
1:56 AM 44.1 °F 41.5 °F 10.9 °F 26% 29.99 in 10.0 mi NW 4.6 mph - N/A   Clear
2:56 AM 43.0 °F - 10.0 °F 26% 30.00 in 10.0 mi Calm Calm - N/A   Clear
3:56 AM 39.9 °F - 10.0 °F 29% 30.01 in 10.0 mi Calm Calm - N/A   Clear
4:56 AM 39.0 °F 34.0 °F 10.9 °F 32% 30.01 in 10.0 mi SSW 6.9 mph - N/A   Clear
5:56 AM 39.9 °F 35.8 °F 12.0 °F 32% 30.03 in 10.0 mi SW 5.8 mph - N/A   Clear
6:56 AM 36.0 °F - 10.9 °F 36% 30.05 in 10.0 mi Calm Calm - N/A   Clear
7:56 AM 44.1 °F 42.5 °F 10.0 °F 25% 30.07 in 10.0 mi WSW 3.5 mph - N/A   Clear
8:56 AM 51.1 °F - 12.0 °F 21% 30.07 in 10.0 mi Calm Calm - N/A   Clear
9:56 AM 59.0 °F - 12.0 °F 16% 30.06 in 10.0 mi Calm Calm - N/A   Clear
10:56 AM 64.0 °F - 5.0 °F 10% 30.06 in 10.0 mi Variable 3.5 mph - N/A   Clear
11:56 AM 66.9 °F - 5.0 °F 9% 30.04 in 10.0 mi East 6.9 mph - N/A   Clear
12:56 PM 69.1 °F - 3.0 °F 7% 30.01 in 10.0 mi East 3.5 mph - N/A   Clear
1:56 PM 70.0 °F - 3.9 °F 7% 29.99 in 10.0 mi Variable 6.9 mph - N/A   Clear
2:56 PM 71.1 °F - 6.1 °F 8% 29.95 in 10.0 mi Variable 4.6 mph - N/A   Clear
3:56 PM 73.9 °F - 7.0 °F 8% 29.92 in 10.0 mi NW 3.5 mph - N/A   Clear
4:56 PM 73.9 °F - 7.0 °F 8% 29.90 in 10.0 mi Variable 4.6 mph - N/A   Clear
5:56 PM 73.9 °F - 7.0 °F 8% 29.89 in 10.0 mi ENE 8.1 mph - N/A   Clear
6:56 PM 71.1 °F - 10.9 °F 10% 29.90 in 10.0 mi South 6.9 mph - N/A   Clear
7:56 PM 68.0 °F - 12.0 °F 11% 29.89 in 10.0 mi Calm Calm - N/A   Clear
8:56 PM 62.1 °F - 12.9 °F 15% 29.92 in 10.0 mi WSW 3.5 mph - N/A   Clear
9:56 PM 59.0 °F - 17.1 °F 20% 29.92 in 10.0 mi South 8.1 mph - N/A   Clear
10:56 PM 55.9 °F - 23.0 °F 28% 29.92 in 10.0 mi South 6.9 mph - N/A   Clear
11:56 PM 53.1 °F - 26.1 °F 35% 29.92 in 10.0 mi SSW 8.1 mph - N/A   Clear